TimeCDT,TemperatureF,Dew PointF,Humidity,Sea Level PressureIn,VisibilityMPH,Wind Direction,Wind SpeedMPH,Gust SpeedMPH,PrecipitationIn,Events,Conditions,WindDirDegrees,DateUTC
12:09 AM,71.6,69.8,94,29.84,8.0,ESE,6.9,-,N/A,,Mostly Cloudy,110,2013-03-20 05:09:00
12:53 AM,72.0,70.0,93,29.85,8.0,East,5.8,-,N/A,,Overcast,90,2013-03-20 05:53:00
1:53 AM,73.9,70.0,87,29.86,8.0,ESE,6.9,-,N/A,,Overcast,110,2013-03-20 06:53:00
2:53 AM,73.0,70.0,90,29.84,8.0,East,5.8,-,N/A,,Overcast,100,2013-03-20 07:53:00
3:53 AM,72.0,69.1,91,29.82,8.0,East,5.8,-,N/A,,Mostly Cloudy,80,2013-03-20 08:53:00
4:20 AM,71.6,69.8,94,29.82,7.0,ENE,6.9,-,N/A,,Scattered Clouds,70,2013-03-20 09:20:00
4:29 AM,71.6,69.8,94,29.83,7.0,NE,6.9,-,N/A,,Mostly Cloudy,50,2013-03-20 09:29:00
4:53 AM,72.0,70.0,93,29.83,8.0,NE,9.2,-,N/A,,Overcast,50,2013-03-20 09:53:00
5:53 AM,72.0,70.0,93,29.87,8.0,NNE,8.1,-,N/A,,Overcast,30,2013-03-20 10:53:00
6:00 AM,73.4,69.8,88,29.89,8.0,NNE,6.9,-,N/A,,Overcast,20,2013-03-20 11:00:00
6:10 AM,73.4,69.8,88,29.90,8.0,NNE,6.9,-,N/A,,Overcast,20,2013-03-20 11:10:00
6:39 AM,73.4,69.8,88,29.92,8.0,NE,9.2,17.3,N/A,,Overcast,40,2013-03-20 11:39:00
6:53 AM,73.0,70.0,90,29.93,7.0,NE,10.4,-,N/A,,Overcast,40,2013-03-20 11:53:00
7:53 AM,73.0,71.1,93,29.96,6.0,NE,12.7,-,N/A,,Overcast,50,2013-03-20 12:53:00
8:53 AM,73.0,70.0,90,30.00,7.0,NE,10.4,19.6,N/A,,Overcast,50,2013-03-20 13:53:00
9:53 AM,73.0,69.1,87,30.03,6.0,NNE,16.1,24.2,N/A,,Overcast,30,2013-03-20 14:53:00
10:14 AM,71.6,69.8,94,30.05,5.0,NNE,13.8,23.0,0.00,,Overcast,30,2013-03-20 15:14:00
10:53 AM,69.1,64.0,84,30.06,9.0,NE,24.2,38.0,0.00,Rain,Light Rain,40,2013-03-20 15:53:00
11:11 AM,69.8,62.6,78,30.07,9.0,NE,23.0,34.5,0.00,,Overcast,50,2013-03-20 16:11:00
11:53 AM,71.1,61.0,70,30.08,10.0,NE,21.9,33.4,0.00,,Overcast,40,2013-03-20 16:53:00
12:53 PM,71.1,61.0,70,30.09,10.0,NE,19.6,26.5,N/A,,Overcast,50,2013-03-20 17:53:00
1:42 PM,71.6,60.8,69,30.07,10.0,NE,12.7,21.9,N/A,,Overcast,50,2013-03-20 18:42:00
1:53 PM,72.0,61.0,68,30.06,10.0,ENE,16.1,24.2,N/A,,Mostly Cloudy,60,2013-03-20 18:53:00
2:53 PM,75.0,61.0,62,30.05,10.0,NE,21.9,28.8,N/A,,Mostly Cloudy,40,2013-03-20 19:53:00
3:44 PM,75.2,60.8,61,30.04,10.0,NNE,20.7,31.1,N/A,,Mostly Cloudy,30,2013-03-20 20:44:00
3:53 PM,73.9,61.0,64,30.04,10.0,NE,19.6,28.8,N/A,,Mostly Cloudy,50,2013-03-20 20:53:00
4:53 PM,73.0,60.1,64,30.04,10.0,NE,17.3,29.9,N/A,,Overcast,50,2013-03-20 21:53:00
5:06 PM,73.4,60.8,65,30.04,10.0,ENE,17.3,25.3,N/A,,Overcast,60,2013-03-20 22:06:00
5:53 PM,71.1,59.0,66,30.05,10.0,NE,16.1,25.3,N/A,,Overcast,50,2013-03-20 22:53:00
6:21 PM,69.8,60.8,73,30.05,10.0,NE,18.4,25.3,N/A,,Overcast,40,2013-03-20 23:21:00
6:53 PM,69.1,60.1,73,30.06,10.0,NE,15.0,26.5,N/A,,Overcast,50,2013-03-20 23:53:00
7:22 PM,68.0,59.0,73,30.06,10.0,NE,15.0,23.0,N/A,,Overcast,50,2013-03-21 00:22:00
7:53 PM,66.9,59.0,76,30.05,10.0,NE,15.0,24.2,N/A,,Overcast,40,2013-03-21 00:53:00
8:53 PM,66.9,57.9,73,30.05,10.0,NE,12.7,19.6,N/A,,Overcast,50,2013-03-21 01:53:00
9:53 PM,64.9,57.9,78,30.06,10.0,NE,6.9,-,N/A,,Partly Cloudy,40,2013-03-21 02:53:00
10:53 PM,63.0,57.9,84,30.07,10.0,Calm,Calm,-,N/A,,Partly Cloudy,0,2013-03-21 03:53:00
11:53 PM,62.1,57.0,84,30.06,10.0,Calm,Calm,-,N/A,,Mostly Cloudy,0,2013-03-21 04:53:00